"read_dt","SO2 (ppb)","flags","PMT voltage (V)","lamp voltage (V)","lamp intensity (Hz)","internal temp (C)","react chamber temp (C)","sample flow (l/min)","pres (mmHg)","SO2 bkg (ppb)","SO2 coefficient"
2014-01-27 00:00:00,4734E-4,5C000000,-0724,0975,10217,026.7,045.3,0.396,744.2,01.18,0.508
2014-01-27 00:01:00,4203E-4,5C000000,-0724,0977,10793,026.7,045.3,0.396,744.2,01.18,0.508
2014-01-27 00:02:00,4079E-4,5C000000,-0724,0978,10703,026.7,045.3,0.396,744.2,01.18,0.508
2014-01-27 00:03:00,5601E-4,5C000000,-0724,0978,10767,026.7,045.3,0.397,744.2,01.18,0.508
2014-01-27 00:04:00,4671E-4,5C000000,-0724,0978,10752,026.7,045.3,0.396,744.2,01.18,0.508
2014-01-27 00:05:00,4324E-4,5C000000,-0724,0977,10744,026.7,045.3,0.396,744.2,01.18,0.508
2014-01-27 00:06:00,3603E-4,5C000000,-0724,0975,10634,026.6,045.3,0.396,744.2,01.18,0.508
2014-01-27 00:07:00,4555E-4,5C000000,-0724,0976,10731,026.6,045.3,0.397,744.2,01.18,0.508
2014-01-27 00:08:00,6059E-4,5C000000,-0724,0974,10199,026.6,045.3,0.396,744.2,01.18,0.508
2014-01-27 00:09:00,3418E-4,5C000000,-0724,0976,10829,026.6,045.3,0.396,744.2,01.18,0.508
2014-01-27 00:10:00,4659E-4,5C000000,-0724,0980,10664,026.7,045.3,0.396,744.2,01.18,0.508
2014-01-27 00:11:00,3222E-4,5C000000,-0724,0979,10740,026.6,045.3,0.397,744.2,01.18,0.508
2014-01-27 00:12:00,4411E-4,5C000000,-0724,0978,10718,026.6,045.3,0.396,744.2,01.18,0.508
2014-01-27 00:13:00,4715E-4,5C000000,-0724,0977,10857,026.7,045.3,0.396,744.2,01.18,0.508
2014-01-27 00:14:00,3828E-4,5C000000,-0724,0978,10709,026.6,045.3,0.396,744.2,01.18,0.508
2014-01-27 00:15:00,4089E-4,5C000000,-0724,0978,10688,026.7,045.3,0.396,744.2,01.18,0.508
2014-01-27 00:16:00,5623E-4,5C000000,-0724,0979,10801,026.6,045.3,0.396,744.2,01.18,0.508
2014-01-27 00:17:00,4375E-4,5C000000,-0724,0978,11107,026.6,045.3,0.396,744.2,01.18,0.508
2014-01-27 00:18:00,5385E-4,5C000000,-0724,0978,10536,026.6,045.3,0.396,744.2,01.18,0.508
2014-01-27 00:19:00,4539E-4,5C000000,-0724,0979,10722,026.6,045.3,0.397,744.2,01.18,0.508
2014-01-27 00:20:00,5219E-4,5C000000,-0724,0977,10776,026.6,045.3,0.396,744.2,01.18,0.508
2014-01-27 00:21:00,3155E-4,5C000000,-0724,0978,10873,026.6,045.3,0.396,744.2,01.18,0.508
2014-01-27 00:22:00,5073E-4,5C000010,-0724,0977,11343,026.6,045.3,0.396,744.2,01.18,0.508
2014-01-27 00:23:00,4910E-4,5C000000,-0724,0979,10730,026.6,045.3,0.396,744.2,01.18,0.508
2014-01-27 00:24:00,4251E-4,5C000000,-0724,0979,10791,026.6,045.3,0.397,744.2,01.18,0.508
2014-01-27 00:25:00,4161E-4,5C000000,-0724,0980,10769,026.6,045.3,0.396,744.1,01.18,0.508
2014-01-27 00:26:00,5513E-4,5C000000,-0724,0978,10771,026.6,045.3,0.396,744.2,01.18,0.508
2014-01-27 00:27:00,4331E-4,5C000000,-0724,0980,10648,026.6,045.3,0.396,744.2,01.18,0.508
2014-01-27 00:28:00,4537E-4,5C000000,-0724,0979,10628,026.6,045.3,0.397,744.2,01.18,0.508
2014-01-27 00:29:00,4890E-4,5C000000,-0724,0978,10839,026.6,045.3,0.396,744.1,01.18,0.508
2014-01-27 00:30:00,4849E-4,5C000000,-0724,0981,10781,026.6,045.3,0.396,744.1,01.18,0.508
2014-01-27 00:31:00,3504E-4,5C000000,-0724,0980,10743,026.6,045.3,0.396,744.1,01.18,0.508
2014-01-27 00:32:00,4259E-4,5C000000,-0724,0980,10670,026.6,045.3,0.396,744.2,01.18,0.508
2014-01-27 00:33:00,3251E-4,5C000000,-0724,0979,10826,026.6,045.3,0.397,744.2,01.18,0.508
2014-01-27 00:34:00,3761E-4,5C000000,-0724,0981,10837,026.6,045.3,0.396,744.2,01.18,0.508
2014-01-27 00:35:00,4995E-4,5C000000,-0724,0979,10713,026.6,045.3,0.396,744.2,01.18,0.508
2014-01-27 00:36:00,4379E-4,5C000000,-0724,0980,10735,026.6,045.3,0.396,744.2,01.18,0.508
2014-01-27 00:37:00,4854E-4,5C000000,-0724,0976,9872,026.6,045.3,0.397,744.2,01.18,0.508
2014-01-27 00:38:00,4148E-4,5C000000,-0724,0974,10167,026.6,045.3,0.396,744.2,01.18,0.508
2014-01-27 00:39:00,5037E-4,5C000000,-0724,0974,10815,026.6,045.3,0.396,744.2,01.18,0.508
2014-01-27 00:40:00,4526E-4,5C000000,-0724,0975,10963,026.6,045.3,0.396,744.2,01.18,0.508
2014-01-27 00:41:00,4817E-4,5C000000,-0724,0975,10802,026.6,045.3,0.397,744.2,01.18,0.508
2014-01-27 00:42:00,4170E-4,5C000000,-0724,0977,10695,026.6,045.3,0.397,744.2,01.18,0.508
2014-01-27 00:43:00,5058E-4,5C000000,-0724,0973,10535,026.6,045.3,0.396,744.2,01.18,0.508
2014-01-27 00:44:00,4995E-4,5C000000,-0724,0979,10931,026.6,045.3,0.396,744.2,01.18,0.508
2014-01-27 00:45:00,3884E-4,5C000000,-0724,0972,10718,026.6,045.3,0.396,744.2,01.18,0.508
2014-01-27 00:46:00,3932E-4,5C000000,-0724,0973,10557,026.6,045.3,0.397,744.2,01.18,0.508
2014-01-27 00:47:00,3241E-4,5C000000,-0724,0974,10767,026.6,045.3,0.396,744.1,01.18,0.508
2014-01-27 00:48:00,4964E-4,5C000000,-0724,0980,10765,026.6,045.3,0.396,744.2,01.18,0.508
2014-01-27 00:49:00,4428E-4,5C000000,-0724,0977,10728,026.6,045.3,0.396,744.2,01.18,0.508
2014-01-27 00:50:00,3959E-4,5C000000,-0724,0980,10731,026.6,045.3,0.397,744.2,01.18,0.508
2014-01-27 00:51:00,4670E-4,5C000000,-0724,0979,11133,026.6,045.3,0.397,744.2,01.18,0.508
2014-01-27 00:52:00,3160E-4,5C000000,-0724,0980,10708,026.6,045.3,0.396,744.2,01.18,0.508
2014-01-27 00:53:00,3551E-4,5C000000,-0724,0979,10715,026.6,045.3,0.396,744.2,01.18,0.508
2014-01-27 00:54:00,4101E-4,5C000000,-0724,0980,10652,026.6,045.3,0.397,744.2,01.18,0.508
2014-01-27 00:55:00,3852E-4,5C000000,-0724,0980,10750,026.6,045.3,0.396,744.2,01.18,0.508
2014-01-27 00:56:00,4579E-4,5C000010,-0724,0975,10160,026.6,045.3,0.396,744.2,01.18,0.508
2014-01-27 00:57:00,3814E-4,5C000000,-0724,0974,10205,026.6,045.3,0.396,744.2,01.18,0.508
2014-01-27 00:58:00,4542E-4,5C000000,-0724,0974,10781,026.6,045.3,0.397,744.2,01.18,0.508
2014-01-27 00:59:00,4815E-4,5C000000,-0724,0979,10600,026.5,045.3,0.397,744.2,01.18,0.508
2014-01-27 01:00:00,3996E-4,5C000000,-0724,0976,10628,026.6,045.3,0.396,744.2,01.18,0.508
2014-01-27 01:01:00,4453E-4,5C000000,-0724,0974,10736,026.5,045.3,0.396,744.2,01.18,0.508
2014-01-27 01:02:00,4658E-4,5C000000,-0724,0975,10841,026.5,045.3,0.396,744.2,01.18,0.508
2014-01-27 01:03:00,5244E-4,5C000000,-0724,0978,10828,026.6,045.3,0.397,744.2,01.18,0.508
2014-01-27 01:04:00,5220E-4,5C000000,-0724,0975,11037,026.5,045.3,0.396,744.2,01.18,0.508
2014-01-27 01:05:00,3568E-4,5C000000,-0724,0977,10768,026.6,045.3,0.396,744.2,01.18,0.508
2014-01-27 01:06:00,5668E-4,5C000000,-0724,0978,10025,026.5,045.3,0.396,744.2,01.18,0.508
2014-01-27 01:07:00,5153E-4,5C000000,-0724,0980,10761,026.5,045.3,0.397,744.2,01.18,0.508
2014-01-27 01:08:00,3514E-4,5C000000,-0724,0979,10665,026.5,045.3,0.396,744.2,01.18,0.508
2014-01-27 01:09:00,3490E-4,5C000000,-0724,0979,10669,026.5,045.3,0.396,744.3,01.18,0.508
2014-01-27 01:10:00,3983E-4,5C000010,-0724,0977,9355,026.5,045.3,0.396,744.2,01.18,0.508
2014-01-27 01:11:00,4345E-4,5C000000,-0724,0979,10694,026.5,045.3,0.397,744.2,01.18,0.508
2014-01-27 01:12:00,4655E-4,5C000000,-0724,0977,11055,026.5,045.2,0.397,744.2,01.18,0.508
2014-01-27 01:13:00,3694E-4,5C000000,-0724,0980,10636,026.5,045.3,0.396,744.2,01.18,0.508
2014-01-27 01:14:00,3531E-4,5C000000,-0724,0979,10810,026.5,045.3,0.396,744.2,01.18,0.508
2014-01-27 01:15:00,3678E-4,5C000000,-0724,0978,10780,026.5,045.3,0.397,744.2,01.18,0.508
2014-01-27 01:16:00,4079E-4,5C000000,-0724,0975,10044,026.5,045.3,0.397,744.2,01.18,0.508
2014-01-27 01:17:00,3136E-4,5C000000,-0724,0977,10768,026.5,045.3,0.396,744.2,01.18,0.508
2014-01-27 01:18:00,4343E-4,5C000000,-0724,0979,10696,026.5,045.3,0.396,744.2,01.18,0.508
2014-01-27 01:19:00,3589E-4,5C000000,-0724,0979,10798,026.5,045.3,0.397,744.2,01.18,0.508
2014-01-27 01:20:00,4126E-4,5C000000,-0724,0979,10758,026.5,045.3,0.397,744.2,01.18,0.508
2014-01-27 01:21:00,3307E-4,5C000000,-0724,0979,10798,026.5,045.3,0.396,744.1,01.18,0.508
2014-01-27 01:22:00,2997E-4,5C000000,-0724,0975,10043,026.5,045.3,0.396,744.2,01.18,0.508
2014-01-27 01:23:00,3548E-4,5C000000,-0724,0974,10597,026.5,045.3,0.396,744.2,01.18,0.508
2014-01-27 01:24:00,2966E-4,5C000000,-0724,0975,10468,026.5,045.3,0.397,744.2,01.18,0.508
2014-01-27 01:25:00,3662E-4,5C000000,-0724,0978,10805,026.5,045.3,0.397,744.2,01.18,0.508
2014-01-27 01:26:00,4143E-4,5C000000,-0724,0976,10737,026.5,045.2,0.396,744.2,01.18,0.508
2014-01-27 01:27:00,4577E-4,5C000000,-0724,0974,10819,026.5,045.3,0.396,744.2,01.18,0.508
2014-01-27 01:28:00,3553E-4,5C000000,-0724,0974,10735,026.5,045.3,0.397,744.2,01.18,0.508
2014-01-27 01:29:00,4591E-4,5C000000,-0724,0976,11020,026.5,045.3,0.397,744.1,01.18,0.508
2014-01-27 01:30:00,3396E-4,5C000000,-0724,0975,10595,026.5,045.3,0.396,744.1,01.18,0.508
2014-01-27 01:31:00,3982E-4,5C000000,-0724,0979,10573,026.5,045.3,0.396,744.2,01.18,0.508
2014-01-27 01:32:00,4075E-4,5C000000,-0724,0980,10615,026.5,045.3,0.397,744.2,01.18,0.508
2014-01-27 01:33:00,4229E-4,5C000000,-0724,0977,10691,026.5,045.3,0.397,744.2,01.18,0.508
2014-01-27 01:34:00,3816E-4,5C000000,-0724,0978,10853,026.5,045.3,0.397,744.2,01.18,0.508
2014-01-27 01:35:00,4430E-4,5C000000,-0724,0978,10654,026.5,045.3,0.396,744.2,01.18,0.508
2014-01-27 01:36:00,4373E-4,5C000000,-0724,0978,10549,026.5,045.3,0.396,744.2,01.18,0.508
2014-01-27 01:37:00,4486E-4,5C000000,-0724,0978,10603,026.5,045.3,0.397,744.2,01.18,0.508
2014-01-27 01:38:00,4723E-4,5C000000,-0724,0977,10717,026.5,045.3,0.397,744.2,01.18,0.508
2014-01-27 01:39:00,4587E-4,5C000000,-0724,0977,10899,026.5,045.3,0.396,744.2,01.18,0.508
2014-01-27 01:40:00,4907E-4,5C000000,-0724,0972,10814,026.5,045.3,0.396,744.2,01.18,0.508
2014-01-27 01:41:00,4851E-4,5C000000,-0724,0979,10822,026.5,045.3,0.396,744.2,01.18,0.508
2014-01-27 01:42:00,5104E-4,5C000000,-0724,0978,10928,026.5,045.3,0.397,744.2,01.18,0.508
2014-01-27 01:43:00,3218E-4,5C000010,-0724,0972,10995,026.5,045.3,0.397,744.2,01.18,0.508
2014-01-27 01:44:00,3663E-4,5C000010,-0724,0971,10942,026.5,045.3,0.396,744.1,01.18,0.508
2014-01-27 01:45:00,5299E-4,5C000000,-0724,0973,10866,026.4,045.3,0.396,744.1,01.18,0.508
2014-01-27 01:46:00,4399E-4,5C000000,-0724,0973,10817,026.4,045.3,0.397,744.1,01.18,0.508
2014-01-27 01:47:00,4690E-4,5C000000,-0724,0974,10910,026.5,045.3,0.397,744.2,01.18,0.508
2014-01-27 01:48:00,5131E-4,5C000000,-0724,0975,10632,026.4,045.3,0.397,744.2,01.18,0.508
2014-01-27 01:49:00,4570E-4,5C000000,-0724,0976,10691,026.4,045.3,0.396,744.2,01.18,0.508
2014-01-27 01:50:00,4456E-4,5C000000,-0724,0974,10153,026.4,045.3,0.397,744.2,01.18,0.508
2014-01-27 01:51:00,5448E-4,5C000000,-0724,0978,10680,026.4,045.3,0.397,744.2,01.18,0.508
2014-01-27 01:52:00,5040E-4,5C000000,-0724,0979,10623,026.4,045.3,0.397,744.2,01.18,0.508
2014-01-27 01:53:00,4355E-4,5C000000,-0724,0980,10812,026.4,045.2,0.396,744.2,01.18,0.508
2014-01-27 01:54:00,4040E-4,5C000000,-0724,0980,10812,026.4,045.2,0.397,744.2,01.18,0.508
2014-01-27 01:55:00,5299E-4,5C000000,-0724,0978,10656,026.4,045.3,0.397,744.2,01.18,0.508
2014-01-27 01:56:00,4942E-4,5C000000,-0724,0979,10743,026.4,045.3,0.397,744.2,01.18,0.508
2014-01-27 01:57:00,4073E-4,5C000000,-0724,0979,10663,026.4,045.3,0.396,744.2,01.18,0.508
2014-01-27 01:58:00,4677E-4,5C000000,-0724,0980,10772,026.4,045.3,0.396,744.2,01.18,0.508
2014-01-27 01:59:00,4663E-4,5C000000,-0724,0979,10665,026.4,045.3,0.397,744.2,01.18,0.508
2014-01-27 02:00:00,5004E-4,5C000000,-0724,0980,10647,026.4,045.3,0.397,744.2,01.18,0.508
2014-01-27 02:01:00,3685E-4,5C000000,-0724,0980,10802,026.4,045.3,0.396,744.2,01.18,0.508
2014-01-27 02:02:00,4149E-4,5C000000,-0724,0980,10578,026.4,045.3,0.396,744.2,01.18,0.508
2014-01-27 02:03:00,4214E-4,5C000000,-0724,0980,10728,026.4,045.3,0.397,744.2,01.18,0.508
2014-01-27 02:04:00,4327E-4,5C000000,-0724,0979,10801,026.4,045.3,0.397,744.2,01.18,0.508
2014-01-27 02:05:00,5486E-4,5C000000,-0724,0980,10767,026.4,045.3,0.396,744.2,01.18,0.508
2014-01-27 02:06:00,4991E-4,5C000000,-0724,0980,10674,026.4,045.3,0.396,744.2,01.18,0.508
2014-01-27 02:07:00,3735E-4,5C000000,-0724,0979,10723,026.4,045.3,0.397,744.2,01.18,0.508
2014-01-27 02:08:00,5745E-4,5C000000,-0724,0980,10766,026.4,045.3,0.397,744.2,01.18,0.508
2014-01-27 02:09:00,4665E-4,5C000000,-0724,0979,10713,026.4,045.3,0.397,744.2,01.18,0.508
2014-01-27 02:10:00,4772E-4,5C000000,-0724,0979,10790,026.4,045.3,0.396,744.2,01.18,0.508
2014-01-27 02:11:00,4211E-4,5C000000,-0724,0980,10580,026.4,045.3,0.397,744.2,01.18,0.508
2014-01-27 02:12:00,3344E-4,5C000000,-0724,0980,10758,026.4,045.3,0.397,744.2,01.18,0.508
2014-01-27 02:13:00,4134E-4,5C000000,-0724,0979,10671,026.4,045.3,0.397,744.2,01.18,0.508
2014-01-27 02:14:00,4190E-4,5C000000,-0724,0980,10855,026.4,045.3,0.396,744.2,01.18,0.508
2014-01-27 02:15:00,4616E-4,5C000000,-0724,0979,10780,026.4,045.3,0.397,744.2,01.18,0.508
2014-01-27 02:16:00,5310E-4,5C000000,-0724,0980,10709,026.4,045.3,0.397,744.2,01.18,0.508
2014-01-27 02:17:00,5685E-4,5C000000,-0724,0979,10741,026.4,045.3,0.397,744.2,01.18,0.508
2014-01-27 02:18:00,4588E-4,5C000000,-0724,0980,10709,026.4,045.3,0.396,744.2,01.18,0.508
2014-01-27 02:19:00,3990E-4,5C000000,-0724,0980,10778,026.4,045.3,0.397,744.2,01.18,0.508
2014-01-27 02:20:00,5148E-4,5C000000,-0724,0979,10791,026.4,045.3,0.397,744.2,01.18,0.508
2014-01-27 02:21:00,4741E-4,5C000000,-0724,0980,10581,026.4,045.3,0.397,744.2,01.18,0.508
2014-01-27 02:22:00,4921E-4,5C000000,-0724,0981,10787,026.4,045.3,0.396,744.2,01.18,0.508
2014-01-27 02:23:00,4672E-4,5C000000,-0724,0979,10784,026.4,045.3,0.396,744.2,01.18,0.508
2014-01-27 02:24:00,5815E-4,5C000000,-0724,0979,10641,026.4,045.3,0.397,744.2,01.18,0.508
2014-01-27 02:25:00,4244E-4,5C000000,-0724,0979,10664,026.4,045.3,0.397,744.1,01.18,0.508
2014-01-27 02:26:00,4510E-4,5C000000,-0724,0979,10792,026.4,045.3,0.396,744.1,01.18,0.508
2014-01-27 02:27:00,4619E-4,5C000000,-0724,0980,10705,026.4,045.3,0.397,744.1,01.18,0.508
2014-01-27 02:28:00,3687E-4,5C000000,-0724,0980,10779,026.4,045.3,0.397,744.1,01.18,0.508
2014-01-27 02:29:00,3828E-4,5C000000,-0724,0978,10741,026.4,045.3,0.397,744.1,01.18,0.508
2014-01-27 02:30:00,4837E-4,5C000000,-0724,0980,10804,026.4,045.3,0.396,744.1,01.18,0.508
2014-01-27 02:31:00,4819E-4,5C000000,-0724,0981,10823,026.4,045.3,0.396,744.1,01.18,0.508
2014-01-27 02:32:00,4847E-4,5C000000,-0724,0980,10768,026.4,045.3,0.397,744.2,01.18,0.508
2014-01-27 02:33:00,4100E-4,5C000000,-0724,0980,10657,026.4,045.3,0.397,744.1,01.18,0.508
2014-01-27 02:34:00,4892E-4,5C000000,-0724,0979,10707,026.4,045.3,0.396,744.1,01.18,0.508
2014-01-27 02:35:00,5240E-4,5C000000,-0724,0979,10767,026.4,045.3,0.396,744.1,01.18,0.508
2014-01-27 02:36:00,4642E-4,5C000000,-0724,0979,10707,026.4,045.3,0.397,744.1,01.18,0.508
2014-01-27 02:37:00,3960E-4,5C000000,-0724,0979,10864,026.4,045.3,0.397,744.1,01.18,0.508
2014-01-27 02:38:00,5142E-4,5C000000,-0724,0980,10801,026.4,045.3,0.397,744.1,01.18,0.508
2014-01-27 02:39:00,4400E-4,5C000000,-0724,0979,10631,026.3,045.3,0.396,744.1,01.18,0.508
2014-01-27 02:40:00,5162E-4,5C000000,-0724,0980,10678,026.3,045.3,0.397,744.1,01.18,0.508
2014-01-27 02:41:00,4407E-4,5C000000,-0724,0980,10753,026.3,045.3,0.397,744.1,01.18,0.508
2014-01-27 02:42:00,3817E-4,5C000000,-0724,0979,10803,026.4,045.3,0.397,744.2,01.18,0.508
2014-01-27 02:43:00,4146E-4,5C000000,-0724,0980,10784,026.3,045.3,0.396,744.1,01.18,0.508
2014-01-27 02:44:00,4601E-4,5C000000,-0724,0980,10749,026.3,045.3,0.397,744.1,01.18,0.508
2014-01-27 02:45:00,5796E-4,5C000000,-0724,0980,10774,026.4,045.3,0.397,744.1,01.18,0.508
2014-01-27 02:46:00,5105E-4,5C000000,-0724,0980,10697,026.3,045.3,0.397,744.1,01.18,0.508
2014-01-27 02:47:00,4626E-4,5C000000,-0724,0979,10765,026.3,045.3,0.397,744.1,01.18,0.508
2014-01-27 02:48:00,6134E-4,5C000000,-0724,0980,10836,026.3,045.3,0.396,744.1,01.18,0.508
2014-01-27 02:49:00,4185E-4,5C000000,-0724,0979,10735,026.3,045.3,0.397,744.1,01.18,0.508
2014-01-27 02:50:00,5410E-4,5C000000,-0724,0979,10754,026.3,045.3,0.397,744.1,01.18,0.508
2014-01-27 02:51:00,4895E-4,5C000000,-0724,0980,10786,026.3,045.3,0.397,744.1,01.18,0.508
2014-01-27 02:52:00,4641E-4,5C000000,-0724,0980,10787,026.3,045.3,0.396,744.1,01.18,0.508
2014-01-27 02:53:00,4686E-4,5C000000,-0724,0979,10792,026.3,045.3,0.397,744.1,01.18,0.508
2014-01-27 02:54:00,5174E-4,5C000000,-0724,0980,10651,026.3,045.3,0.397,744.1,01.18,0.508
2014-01-27 02:55:00,4524E-4,5C000000,-0724,0980,10789,026.3,045.3,0.397,744.1,01.18,0.508
2014-01-27 02:56:00,4868E-4,5C000000,-0724,0979,10613,026.3,045.3,0.397,744.1,01.18,0.508
2014-01-27 02:57:00,4388E-4,5C000000,-0724,0979,10630,026.3,045.3,0.396,744.2,01.18,0.508
2014-01-27 02:58:00,4653E-4,5C000000,-0724,0981,10699,026.3,045.3,0.397,744.2,01.18,0.508
2014-01-27 02:59:00,5180E-4,5C000000,-0724,0978,10868,026.3,045.3,0.397,744.2,01.18,0.508
2014-01-27 03:00:00,5007E-4,5C000000,-0724,0978,10781,026.3,045.3,0.397,744.2,01.18,0.508
2014-01-27 03:01:00,5740E-4,5C000000,-0724,0979,10585,026.3,045.3,0.396,744.2,01.18,0.508
2014-01-27 03:02:00,5079E-4,5C000000,-0724,0978,10711,026.3,045.3,0.397,744.1,01.18,0.508
2014-01-27 03:03:00,4561E-4,5C000000,-0724,0980,10824,026.3,045.3,0.397,744.1,01.18,0.508
2014-01-27 03:04:00,5198E-4,5C000000,-0724,0979,10666,026.3,045.3,0.397,744.1,01.18,0.508
2014-01-27 03:05:00,4756E-4,5C000000,-0724,0979,10717,026.3,045.3,0.396,744.1,01.18,0.508
2014-01-27 03:06:00,4607E-4,5C000000,-0724,0980,10730,026.3,045.3,0.397,744.1,01.18,0.508
2014-01-27 03:07:00,5263E-4,5C000000,-0724,0981,10847,026.3,045.3,0.397,744.1,01.18,0.508
2014-01-27 03:08:00,4377E-4,5C000000,-0724,0979,10731,026.3,045.3,0.397,744.1,01.18,0.508
2014-01-27 03:09:00,5522E-4,5C000000,-0724,0980,10762,026.3,045.3,0.397,744.1,01.18,0.508
2014-01-27 03:10:00,5635E-4,5C000000,-0724,0981,10803,026.3,045.3,0.397,744.1,01.18,0.508
2014-01-27 03:11:00,5149E-4,5C000000,-0724,0979,10784,026.3,045.3,0.397,744.1,01.18,0.508
2014-01-27 03:12:00,5023E-4,5C000000,-0724,0980,10697,026.3,045.3,0.397,744.1,01.18,0.508
2014-01-27 03:13:00,4397E-4,5C000000,-0724,0979,10663,026.3,045.3,0.397,744.1,01.18,0.508
2014-01-27 03:14:00,4682E-4,5C000000,-0724,0979,10708,026.3,045.3,0.396,744.1,01.18,0.508
2014-01-27 03:15:00,5177E-4,5C000000,-0724,0979,10649,026.3,045.3,0.397,744.1,01.18,0.508
2014-01-27 03:16:00,5953E-4,5C000000,-0724,0980,10740,026.3,045.3,0.397,744.1,01.18,0.508
2014-01-27 03:17:00,4348E-4,5C000000,-0724,0979,10636,026.3,045.3,0.397,744.1,01.18,0.508
2014-01-27 03:18:00,5714E-4,5C000000,-0724,0979,10882,026.3,045.3,0.397,744.1,01.18,0.508
2014-01-27 03:19:00,4790E-4,5C000000,-0724,0979,10658,026.3,045.3,0.397,744.1,01.18,0.508
2014-01-27 03:20:00,5144E-4,5C000000,-0724,0980,10782,026.3,045.3,0.396,744.1,01.18,0.508
2014-01-27 03:21:00,4732E-4,5C000000,-0724,0981,10776,026.3,045.3,0.397,744.1,01.18,0.508
2014-01-27 03:22:00,5843E-4,5C000000,-0724,0980,10628,026.3,045.3,0.397,744.1,01.18,0.508
2014-01-27 03:23:00,4927E-4,5C000000,-0724,0979,10601,026.2,045.3,0.397,744.1,01.18,0.508
2014-01-27 03:24:00,4084E-4,5C000000,-0724,0979,10824,026.3,045.3,0.397,744.1,01.18,0.508
2014-01-27 03:25:00,4170E-4,5C000000,-0724,0980,10839,026.2,045.3,0.397,744.1,01.18,0.508
2014-01-27 03:26:00,4714E-4,5C000000,-0724,0979,10720,026.3,045.3,0.397,744.1,01.18,0.508
2014-01-27 03:27:00,4145E-4,5C000000,-0724,0979,10785,026.3,045.3,0.397,744.1,01.18,0.508
2014-01-27 03:28:00,4719E-4,5C000000,-0724,0979,10775,026.2,045.3,0.397,744.1,01.18,0.508
2014-01-27 03:29:00,4591E-4,5C000000,-0724,0980,10634,026.3,045.3,0.397,744.1,01.18,0.508
2014-01-27 03:30:00,3947E-4,5C000000,-0724,0979,10821,026.2,045.3,0.397,744.2,01.18,0.508
2014-01-27 03:31:00,4829E-4,5C000000,-0724,0980,10695,026.2,045.3,0.397,744.2,01.18,0.508
2014-01-27 03:32:00,4276E-4,5C000000,-0724,0979,10524,026.2,045.3,0.397,744.2,01.18,0.508
2014-01-27 03:33:00,4140E-4,5C000000,-0724,0979,10688,026.3,045.3,0.397,744.2,01.18,0.508
2014-01-27 03:34:00,3537E-4,5C000000,-0724,0980,10733,026.2,045.3,0.397,744.1,01.18,0.508
2014-01-27 03:35:00,4878E-4,5C000000,-0724,0979,10835,026.2,045.3,0.397,744.2,01.18,0.508
2014-01-27 03:36:00,4612E-4,5C000000,-0724,0981,10598,026.3,045.3,0.397,744.2,01.18,0.508
2014-01-27 03:37:00,3628E-4,5C000000,-0724,0979,10721,026.2,045.3,0.397,744.2,01.18,0.508
2014-01-27 03:38:00,3765E-4,5C000000,-0724,0979,10814,026.2,045.3,0.397,744.2,01.18,0.508
2014-01-27 03:39:00,5112E-4,5C000000,-0724,0979,10806,026.2,045.3,0.397,744.2,01.18,0.508
2014-01-27 03:40:00,4725E-4,5C000000,-0724,0980,10709,026.2,045.3,0.397,744.2,01.18,0.508
2014-01-27 03:41:00,4532E-4,5C000000,-0724,0979,10815,026.2,045.3,0.397,744.2,01.18,0.508
2014-01-27 03:42:00,4424E-4,5C000000,-0724,0979,10672,026.2,045.3,0.397,744.2,01.18,0.508
2014-01-27 03:43:00,4727E-4,5C000000,-0724,0979,10772,026.2,045.3,0.397,744.2,01.18,0.508
2014-01-27 03:44:00,4559E-4,5C000000,-0724,0980,10695,026.2,045.3,0.397,744.2,01.18,0.508
2014-01-27 03:45:00,4743E-4,5C000000,-0724,0980,10377,026.2,045.3,0.397,744.2,01.18,0.508
2014-01-27 03:46:00,4197E-4,5C000000,-0724,0980,10786,026.2,045.3,0.397,744.2,01.18,0.508
2014-01-27 03:47:00,5400E-4,5C000000,-0724,0979,10825,026.2,045.3,0.397,744.2,01.18,0.508
2014-01-27 03:48:00,4189E-4,5C000000,-0724,0980,10786,026.2,045.3,0.397,744.2,01.18,0.508
2014-01-27 03:49:00,4635E-4,5C000000,-0724,0980,10776,026.2,045.3,0.397,744.2,01.18,0.508
2014-01-27 03:50:00,4462E-4,5C000000,-0724,0979,10769,026.2,045.3,0.397,744.2,01.18,0.508
2014-01-27 03:51:00,4784E-4,5C000000,-0724,0979,10730,026.2,045.3,0.397,744.2,01.18,0.508
2014-01-27 03:52:00,5521E-4,5C000000,-0724,0979,10766,026.2,045.3,0.397,744.2,01.18,0.508
2014-01-27 03:53:00,5347E-4,5C000000,-0724,0979,10650,026.2,045.3,0.397,744.2,01.18,0.508
2014-01-27 03:54:00,5441E-4,5C000000,-0724,0980,10810,026.2,045.3,0.397,744.2,01.18,0.508
2014-01-27 03:55:00,5277E-4,5C000000,-0724,0979,10795,026.2,045.3,0.397,744.2,01.18,0.508
2014-01-27 03:56:00,6026E-4,5C000000,-0724,0979,10729,026.2,045.2,0.397,744.2,01.18,0.508
2014-01-27 03:57:00,5435E-4,5C000000,-0724,0978,10824,026.2,045.3,0.397,744.2,01.18,0.508
2014-01-27 03:58:00,5161E-4,5C000000,-0724,0980,10789,026.2,045.3,0.397,744.2,01.18,0.508
2014-01-27 03:59:00,4890E-4,5C000000,-0724,0980,10767,026.2,045.2,0.397,744.2,01.18,0.508
2014-01-27 04:00:00,5321E-4,5C000000,-0724,0979,10725,026.2,045.2,0.397,744.2,01.18,0.508
2014-01-27 04:01:00,4370E-4,5C000000,-0724,0979,10755,026.2,045.3,0.397,744.2,01.18,0.508
2014-01-27 04:02:00,5732E-4,5C000000,-0724,0980,10623,026.2,045.3,0.397,744.2,01.18,0.508
2014-01-27 04:03:00,4102E-4,5C000000,-0724,0979,10583,026.2,045.3,0.397,744.2,01.18,0.508
2014-01-27 04:04:00,5355E-4,5C000000,-0724,0979,10890,026.2,045.3,0.397,744.2,01.18,0.508
2014-01-27 04:05:00,4000E-4,5C000000,-0724,0979,10649,026.2,045.3,0.397,744.2,01.18,0.508
2014-01-27 04:06:00,4464E-4,5C000000,-0724,0979,10821,026.2,045.3,0.398,744.2,01.18,0.508
2014-01-27 04:07:00,4575E-4,5C000000,-0724,0980,10661,026.1,045.3,0.397,744.2,01.18,0.508
2014-01-27 04:08:00,4499E-4,5C000000,-0724,0979,10766,026.1,045.3,0.397,744.2,01.18,0.508
2014-01-27 04:09:00,4931E-4,5C000000,-0724,0979,10764,026.1,045.3,0.397,744.2,01.18,0.508
2014-01-27 04:10:00,5616E-4,5C000000,-0724,0980,10824,026.1,045.3,0.397,744.2,01.18,0.508
2014-01-27 04:11:00,4391E-4,5C000000,-0724,0979,10744,026.1,045.3,0.397,744.3,01.18,0.508
2014-01-27 04:12:00,4567E-4,5C000000,-0724,0979,10800,026.1,045.3,0.397,744.3,01.18,0.508
2014-01-27 04:13:00,4116E-4,5C000000,-0724,0979,10782,026.1,045.3,0.398,744.3,01.18,0.508
2014-01-27 04:14:00,4289E-4,5C000000,-0724,0979,10680,026.1,045.2,0.397,744.3,01.18,0.508
2014-01-27 04:15:00,3864E-4,5C000000,-0724,0979,10771,026.1,045.3,0.397,744.3,01.18,0.508
2014-01-27 04:16:00,5251E-4,5C000000,-0724,0979,10864,026.1,045.2,0.397,744.3,01.18,0.508
2014-01-27 04:17:00,4434E-4,5C000000,-0724,0979,10856,026.1,045.3,0.398,744.3,01.18,0.508
2014-01-27 04:18:00,4854E-4,5C000000,-0724,0979,10711,026.1,045.3,0.397,744.3,01.18,0.508
2014-01-27 04:19:00,4312E-4,5C000000,-0724,0980,10858,025.9,045.3,0.398,744.3,01.18,0.508
2014-01-27 04:20:00,4586E-4,5C000000,-0724,0978,10757,025.7,045.2,0.398,744.4,01.18,0.508